PAKSAT-1R

Last updated on Sun Apr 12 2026 00:02:52 GMT+0000 (Coordinated Universal Time)

1 37779U 11042A 26101.45689506 .00000156 00000+0 00000+0 0 9994 2 37779 0.5145 85.0723 0002919 314.1776 2.9313 1.00268101 53808
UTC large
Height (km)
Speed (km/s)
/
Latitude / Longitude
Inclination (degrees)
Orbital Period (minutes)
Azimuth
Elevation
Range (km)
Doppler Factor

Next 0 passes for location: London (51.5072 / 0.1276)

Sorry there are no passes over London.
PAKSAT-1R